Showing default

SHIYAN 27E, 63603

Orbit data source: Space-Track

SHIYAN 27E, 63603 is a payload satellite owned by CAST (CN) in SSO that was launched on Fri, 18 Apr 2025 UTC via a CHANG ZHENG 6A launch vehicle from the Taiyaun Space Center, China (TSC). Payload-class satellites include a variety of spacecraft equipped with specific instruments for various scientific and technological missions. These include communications satellites like Starlink; space stations such as the ISS; scientific satellites like the Hubble; Earth observation satellites from companies like Planet Labs, Umbra, and HawkEye 360; GPS; miniature CubeSats for education and research; and military/defense satellites.

Loading next visibility...
Identifier
63603, 2025-078E
Orbit
SSO
Country
Flag of CNCN / PRC
Related business
Manufacturer
CAST
Mission
Operational Defense Radar Imaging
Bus & Motor
SW27, Unknown motor
Mass
300 kg wet, ~300 kg dry
Launch date (UTC)
2025-04-18 (8 months ago)
Launch vehicle
CHANG ZHENG 6A
Launch site
Taiyaun Space Center, China (TSC)
Object type
Payload
Rocket body
Debris
Shape & HBR
Box + 1 Pan, 2.1 m
Radar Cross Section
13.200 m², Large (>1 m²)

Expand to show TLE details & history
Last TLE update: 14 hours ago

TLE from 14 hours ago
0 SHIYAN 27E
1 63603U 25078E   25349.34680359  .00000031  00000-0  10580-3 0  9992
2 63603  99.6917 354.2653 0000738  90.1954 269.9269 13.57229330 32592
Epoch: 2025-12-15T08:19Z
TLE epoch observation values (Epoch: 2025-12-15T08:19:23.830Z)
Latitude
Longitude
145.16933°
Altitude
1,048.575 km
Speed
7.328 km/s
True Right ascension
23h 37m 03s
True Declination
0° 00' 00"
Sunlit
Object was in daylight at epoch
Visualization orbit readout
Latitude
Unknown
Longitude
Unknown
Altitude
Unknown
Speed
Unknown
Apparent Right ascension
Unknown
Apparent Declination
Unknown
Sunlit
N/A
Visualization observer readout
Local Sidereal Time
21:17:01
Azimuth
Unknown
Elevation
Unknown
Doppler factor
Unknown
Orbital elements
Apogee altitude
1,043.617 km
Perigee altitude
1,042.522 km
Semi-major axis
7,421.207 km
Eccentricity
0.00007
Inclination
99.6917°
RAAN
354.2653°
Arg. of periapsis
90.1954°
True anomaly
269.91844°
Mean anomaly
269.9269°
Eccentric anomaly
269.92267°
Mean motion
3.39493 °/min
Orbital period
106.04 mins
BSTAR
0.0001058
Loading maneuver chart data...
Computing Atmospheric mass density...
Loading historical data...
Loading historical data...
Loading historical data...
Loading historical data...
Loading historical data...
Loading historical data...
Loading historical data...

Documentation

Showing up to 5 results
|